When you browse on this site, cookies collect data to enhance your experience and personalize the content and advertising you see.
Visit our Privacy Policy to learn more. By continuing to use the site, you agree to this use of cookies and data.
  • în România
  • Lista ţărilor
  • Pe 7 zile
  • Temperatura apei
  • Hartă satelitară
  • Meteo pe hartă
  • Widget-uri
  • user-avatar
    Intrare

    Meteo pe oră la Búðardalur

    Astăzi, 20 Martie, Miercuri

    Timp Temperatura Precipitaţii Vânt Presiune Umiditate
    00:00 -6°C° 0.1 mm 14 m/s 742 mmHg 75%
    01:00 -6°C° 0.1 mm 14 m/s 742 mmHg 75%
    02:00 -6°C° 0.1 mm 14 m/s 743 mmHg 75%
    03:00 -8°C° 0.2 mm 14 m/s 743 mmHg 76%
    04:00 -8°C° 0.2 mm 14 m/s 743 mmHg 76%
    05:00 -8°C° 0.2 mm 14 m/s 744 mmHg 77%
    06:00 -8°C° 0.3 mm 14 m/s 744 mmHg 77%
    07:00 -8°C° 0.3 mm 14 m/s 744 mmHg 77%
    08:00 -8°C° 0.3 mm 14 m/s 745 mmHg 77%
    09:00 -9°C° 0.2 mm 15 m/s 745 mmHg 75%
    10:00 -9°C° 0.2 mm 15 m/s 745 mmHg 74%
    11:00 -9°C° 0.2 mm 15 m/s 745 mmHg 73%
    12:00 -9°C° 0.2 mm 15 m/s 746 mmHg 73%
    13:00 -9°C° 0.2 mm 15 m/s 746 mmHg 73%
    14:00 -9°C° 0.2 mm 15 m/s 746 mmHg 73%
    15:00 -9°C° 0.2 mm 15 m/s 746 mmHg 72%
    16:00 -9°C° 0.2 mm 15 m/s 747 mmHg 71%
    17:00 -9°C° 0.2 mm 15 m/s 747 mmHg 70%
    18:00 -9°C° 0.2 mm 14 m/s 747 mmHg 71%
    19:00 -9°C° 0.2 mm 14 m/s 748 mmHg 71%
    20:00 -9°C° 0.2 mm 14 m/s 748 mmHg 71%
    21:00 -9°C° 0.2 mm 14 m/s 748 mmHg 71%
    22:00 -9°C° 0.2 mm 13 m/s 748 mmHg 71%
    23:00 -9°C° 0.2 mm 13 m/s 748 mmHg 70%

    Mâine, 21 Martie, Joi

    Timp Temperatura Precipitaţii Vânt Presiune Umiditate
    00:00 -8°C° 0.2 mm 12 m/s 749 mmHg 71%
    01:00 -8°C° 0.2 mm 11 m/s 749 mmHg 72%
    02:00 -8°C° 0.2 mm 10 m/s 749 mmHg 73%
    03:00 -8°C° 0.2 mm 10 m/s 749 mmHg 73%
    04:00 -8°C° 0.2 mm 10 m/s 749 mmHg 73%
    05:00 -8°C° 0.2 mm 10 m/s 749 mmHg 73%
    06:00 -6°C° 0.1 mm 9 m/s 749 mmHg 73%
    07:00 -6°C° 0.1 mm 9 m/s 749 mmHg 74%
    08:00 -6°C° 0.1 mm 9 m/s 749 mmHg 74%
    09:00 -5°C° 0.2 mm 9 m/s 749 mmHg 75%
    10:00 -5°C° 0.2 mm 10 m/s 749 mmHg 76%
    11:00 -5°C° 0.2 mm 10 m/s 749 mmHg 77%
    12:00 -5°C° 0.4 mm 8 m/s 749 mmHg 80%
    13:00 -4°C° 0.4 mm 6 m/s 750 mmHg 83%
    14:00 -3°C° 0.4 mm 4 m/s 750 mmHg 85%
    15:00 -3°C° 0.3 mm 4 m/s 750 mmHg 85%
    16:00 -3°C° 0.3 mm 4 m/s 750 mmHg 84%
    17:00 -3°C° 0.3 mm 4 m/s 750 mmHg 84%
    18:00 -3°C° 0.2 mm 4 m/s 749 mmHg 83%
    19:00 -4°C° 0.2 mm 4 m/s 749 mmHg 81%
    20:00 -4°C° 0.2 mm 4 m/s 749 mmHg 80%
    21:00 -5°C° 0.1 mm 5 m/s 748 mmHg 82%
    22:00 -5°C° 0.1 mm 5 m/s 748 mmHg 83%
    23:00 -5°C° 0.1 mm 5 m/s 747 mmHg 84%

    Poimâine, 22 Martie, Vineri

    Timp Temperatura Precipitaţii Vânt Presiune Umiditate
    00:00 -5°C° 0.1 mm 5 m/s 747 mmHg 85%
    01:00 -4°C° 0.1 mm 4 m/s 746 mmHg 85%
    02:00 -4°C° 0.1 mm 4 m/s 745 mmHg 86%
    03:00 -4°C° 0.1 mm 4 m/s 745 mmHg 88%
    04:00 -5°C° 0.1 mm 4 m/s 744 mmHg 89%
    05:00 -5°C° 0.1 mm 4 m/s 743 mmHg 91%
    06:00 -5°C° 0.1 mm 4 m/s 742 mmHg 90%
    07:00 -4°C° 0.1 mm 4 m/s 741 mmHg 90%
    08:00 -4°C° 0.1 mm 4 m/s 740 mmHg 90%
    09:00 -4°C° 0.3 mm 4 m/s 740 mmHg 89%
    10:00 -4°C° 0.3 mm 5 m/s 739 mmHg 88%
    11:00 -2°C° 0.3 mm 5 m/s 738 mmHg 88%
    12:00 -4°C° 0.5 mm 7 m/s 738 mmHg 90%
    13:00 -5°C° 0.5 mm 10 m/s 738 mmHg 92%
    14:00 -7°C° 0.5 mm 12 m/s 739 mmHg 94%
    15:00 -8°C° 0.6 mm 12 m/s 740 mmHg 87%
    16:00 -10°C° 0.6 mm 12 m/s 742 mmHg 80%
    17:00 -11°C° 0.6 mm 12 m/s 743 mmHg 74%
    18:00 -11°C° 0.1 mm 11 m/s 744 mmHg 74%
    19:00 -10°C° 0.1 mm 10 m/s 745 mmHg 75%
    20:00 -10°C° 0.1 mm 10 m/s 746 mmHg 75%
    21:00 -10°C° 0.1 mm 8 m/s 746 mmHg 77%
    22:00 -9°C° 0.1 mm 7 m/s 746 mmHg 78%
    23:00 -8°C° 0.1 mm 6 m/s 746 mmHg 79%

    23 Martie, Sâmbătă

    Timp Temperatura Precipitaţii Vânt Presiune Umiditate
    00:00 -8°C° 0.5 mm 7 m/s 746 mmHg 83%
    01:00 -7°C° 0.5 mm 7 m/s 745 mmHg 86%
    02:00 -6°C° 0.5 mm 7 m/s 745 mmHg 90%
    03:00 -5°C° 1.6 mm 8 m/s 743 mmHg 90%
    04:00 -5°C° 1.6 mm 10 m/s 741 mmHg 91%
    05:00 -4°C° 1.6 mm 11 m/s 740 mmHg 91%
    06:00 -4°C° 0.6 mm 10 m/s 739 mmHg 88%
    07:00 -4°C° 0.6 mm 9 m/s 739 mmHg 84%
    08:00 -5°C° 0.6 mm 8 m/s 739 mmHg 81%
    09:00 -4°C° 0.2 mm 6 m/s 739 mmHg 83%
    10:00 -2°C° 0.2 mm 3 m/s 739 mmHg 86%
    11:00 0°C° 0.2 mm 1 m/s 739 mmHg 88%
    12:00 -2°C° 1.2 mm 3 m/s 738 mmHg 89%
    13:00 -4°C° 1.2 mm 5 m/s 738 mmHg 91%
    14:00 -4°C° 1.2 mm 6 m/s 737 mmHg 92%
    15:00 -5°C° 0.6 mm 5 m/s 738 mmHg 93%
    16:00 -5°C° 0.6 mm 5 m/s 738 mmHg 93%
    17:00 -5°C° 0.6 mm 4 m/s 738 mmHg 94%
    18:00 -6°C° 0.7 mm 5 m/s 739 mmHg 87%
    19:00 -8°C° 0.7 mm 6 m/s 739 mmHg 80%
    20:00 -8°C° 0.7 mm 7 m/s 740 mmHg 73%
    21:00 -8°C° 0.3 mm 8 m/s 741 mmHg 74%
    22:00 -9°C° 0.3 mm 9 m/s 742 mmHg 75%
    23:00 -9°C° 0.3 mm 10 m/s 743 mmHg 76%

    24 Martie, Duminică

    Timp Temperatura Precipitaţii Vânt Presiune Umiditate
    00:00 -9°C° 0.1 mm 9 m/s 745 mmHg 72%
    01:00 -9°C° 0.1 mm 9 m/s 746 mmHg 68%
    02:00 -10°C° 0.1 mm 8 m/s 747 mmHg 65%
    03:00 -10°C° 0 mm 8 m/s 749 mmHg 69%
    04:00 -10°C° 0 mm 9 m/s 752 mmHg 73%
    05:00 -11°C° 0 mm 9 m/s 754 mmHg 78%
    06:00 -11°C° 0 mm 8 m/s 756 mmHg 76%
    07:00 -12°C° 0 mm 8 m/s 757 mmHg 75%
    08:00 -12°C° 0 mm 7 m/s 759 mmHg 74%
    09:00 -12°C° 0 mm 7 m/s 761 mmHg 73%
    10:00 -11°C° 0 mm 6 m/s 762 mmHg 72%
    11:00 -10°C° 0 mm 5 m/s 764 mmHg 71%
    12:00 -9°C° 0 mm 4 m/s 765 mmHg 69%
    13:00 -9°C° 0 mm 4 m/s 766 mmHg 66%
    14:00 -7°C° 0 mm 3 m/s 766 mmHg 64%
    15:00 -8°C° 0 mm 3 m/s 767 mmHg 66%
    16:00 -9°C° 0 mm 3 m/s 768 mmHg 69%
    17:00 -9°C° 0 mm 3 m/s 768 mmHg 71%
    18:00 -10°C° 0 mm 3 m/s 769 mmHg 71%
    19:00 -12°C° 0 mm 3 m/s 769 mmHg 70%
    20:00 -13°C° 0 mm 3 m/s 770 mmHg 69%
    21:00 -13°C° 0 mm 3 m/s 770 mmHg 68%
    22:00 -14°C° 0 mm 3 m/s 770 mmHg 68%
    23:00 -14°C° 0 mm 3 m/s 770 mmHg 67%

    25 Martie, Luni

    Timp Temperatura Precipitaţii Vânt Presiune Umiditate
    00:00 -13°C° 0 mm 3 m/s 769 mmHg 66%
    01:00 -13°C° 0 mm 3 m/s 769 mmHg 64%
    02:00 -10°C° 0 mm 2 m/s 768 mmHg 63%
    03:00 -9°C° 0 mm 2 m/s 768 mmHg 63%
    04:00 -8°C° 0 mm 2 m/s 767 mmHg 64%
    05:00 -7°C° 0 mm 2 m/s 767 mmHg 64%
    06:00 -6°C° 0.3 mm 2 m/s 767 mmHg 73%
    07:00 -6°C° 0.3 mm 3 m/s 767 mmHg 83%
    08:00 -5°C° 0.3 mm 3 m/s 767 mmHg 92%
    09:00 -3°C° 0.1 mm 4 m/s 766 mmHg 91%
    10:00 -1°C° 0.1 mm 5 m/s 766 mmHg 89%
    11:00 +1°C° 0.1 mm 6 m/s 766 mmHg 88%
    12:00 +1°C° 0 mm 6 m/s 765 mmHg 90%
    13:00 +1°C° 0 mm 6 m/s 765 mmHg 92%
    14:00 +1°C° 0 mm 6 m/s 764 mmHg 94%
    15:00 +2°C° 0.1 mm 7 m/s 764 mmHg 95%
    16:00 +1°C° 0.1 mm 8 m/s 763 mmHg 96%
    17:00 +1°C° 0.1 mm 9 m/s 762 mmHg 98%
    18:00 +1°C° 0.2 mm 9 m/s 762 mmHg 97%
    19:00 +1°C° 0.2 mm 9 m/s 761 mmHg 96%
    20:00 +1°C° 0.2 mm 9 m/s 761 mmHg 95%
    21:00 +1°C° 0.2 mm 9 m/s 760 mmHg 95%
    22:00 +1°C° 0.2 mm 10 m/s 760 mmHg 95%
    23:00 +1°C° 0.2 mm 10 m/s 759 mmHg 96%
    Arată mai mult